Flag for Liberia Weather past 2 weeks in Kakata, Liberia

Now
82 °F

Partly sunny.


Feels Like: 89 °F
Forecast: N/A
Wind: 8 mph from West

Location: Lungi

Current Time: Jul 30, 2014 at 3:51:11 PM

Latest Report: Jul 30, 2014 at 3:00 PM


Visibility: N/A

Pressure: 29.92 "Hg

Humidity: 79%

Dew point: 75 °F

Location of KakataLocation

Historic Weather in Kakata — Graph

°F

Kakata temperature yesterday

Maximum temperature yesterday: 82 °F (at 11:00 AM)
Minimum temperature yesterday: 75 °F (at 1:00 AM)
Average temperature yesterday: 79 °F

Past Weeks' High & Low Weather Summary

 TemperatureHumidityPressure
High86 °F (Jul 19, 5:00 PM)100% (Jul 16, 8:00 AM)30.04 "Hg (Jul 16, 8:00 AM)
Low70 °F (Jul 28, 12:00 AM)70% (Jul 19, 4:00 PM)29.83 "Hg (Jul 27, 6:00 PM)
Average79 °F87%29.95 "Hg
* Reported Jul 15 2:00 PM — Jul 30 2:00 PM, Kakata, Weather by CustomWeather, © 2014

Note: Actual official high and low records may vary slightly from our data, if they occured in-between our weather recording intervals... More about our weather records

Advertising

Kakata weather history for previous 24 hours

 ConditionsComfort  
Time TempWeatherWind HumidityBarometerVisibility
2:00 PM
Jul 30
82 °FPartly sunny.8 mph79%29.92 "HgN/A
1:30 PM77 °FPartly sunny.7 mph100%29.92 "HgN/A
1:00 PM77 °FPartly sunny.7 mph100%29.95 "HgN/A
12:30 PM79 °FPartly sunny.7 mph94%29.95 "HgN/A
12:00 PM79 °FPartly sunny.7 mph94%29.95 "HgN/A
11:00 AM77 °FPartly sunny.6 mph100%29.95 "HgN/A
10:30 AM75 °FPartly sunny.7 mph100%29.95 "HgN/A
10:00 AM75 °FRain. Partly sunny.7 mph100%29.95 "Hg4 mi
9:30 AM75 °FRain. Partly sunny.8 mph100%29.95 "Hg4 mi
9:00 AM75 °FRain. Partly sunny.9 mph100%29.95 "Hg4 mi
7:00 AM79 °FScattered clouds.6 mph89%29.92 "HgN/A
6:00 AM79 °FPassing clouds.14 mph89%29.89 "HgN/A
12:30 AM79 °FPassing clouds.14 mph89%29.95 "HgN/A
12:00 AM79 °FPassing clouds.14 mph89%29.95 "HgN/A
11:00 PM
Jul 29
77 °FPassing clouds.12 mph94%29.92 "HgN/A
10:00 PM79 °FPassing clouds.14 mph89%29.92 "HgN/A
9:00 PM79 °FPassing clouds.10 mph89%29.92 "HgN/A
8:00 PM77 °FPassing clouds.7 mph89%29.92 "HgN/A
7:00 PM81 °FPartly sunny.7 mph79%29.89 "HgN/A
6:00 PM82 °FPartly sunny.7 mph79%29.89 "HgN/A
5:00 PM82 °FScattered clouds.6 mph79%29.89 "HgN/A
4:30 PM82 °FScattered clouds.6 mph74%29.89 "HgN/A
4:00 PM82 °FScattered clouds.7 mph74%29.89 "HgN/A
3:30 PM82 °FScattered clouds.8 mph74%29.89 "HgN/A
Weather by CustomWeather, © 2014

See weather overviewHow to use our weather pages